Starlink 32583

operational
NORAD ID: 61955 Int'l Des: 2024-209 Owner: SPXS Country: US Constellation: starlink
LEOCIRCULAR

Starlink 32583について

説明を読み込み中...

リアルタイム位置

3D地球を読み込み中...

次回通過

高度履歴

Altitude vs Time

uPlot chart will show altitude changes over time

軌道要素

1 61955U 24209S 25306.44832338 .00028614 00000-0 97371-3 0 9995
2 61955 53.1617 13.5702 0001359 83.7180 276.3975 15.30226318 55431
Epoch: Nov 2, 2025 • Age: 11 hours

現在のステータス

高度 480.7 km
速度 7.63 km/s
衛星直下点 53.16°N, 81.22°E
打ち上げ日 Nov 14, 2024
運用期間 0.9 years
タイプ internet

技術仕様

分類 Payload
質量 730.00 kg
乾燥質量 700.00 kg
総質量 730.00 kg
長さ 0.30 m
直径 4.10 m
スパン 29.00 m
形状 Box + pan
製造者 SPXS
バスタイプ Starlink V2M
フェーズステータス In Orbit
所有者/国 SPXS/US

大規模コンステレーション

Loading constellations...